TimeMST,TemperatureF,Dew PointF,Humidity,Sea Level PressureIn,VisibilityMPH,Wind Direction,Wind SpeedMPH,Gust SpeedMPH,PrecipitationIn,Events,Conditions,WindDirDegrees,DateUTC
12:53 AM,28.9,19.0,67,30.19,10.0,WSW,10.4,-,N/A,,Clear,240,2013-01-18 07:53:00
1:53 AM,32.0,19.0,59,30.16,10.0,WSW,11.5,-,N/A,,Clear,250,2013-01-18 08:53:00
2:53 AM,28.0,17.1,63,30.15,10.0,WSW,8.1,-,N/A,,Clear,240,2013-01-18 09:53:00
3:53 AM,26.1,17.1,69,30.14,10.0,West,11.5,-,N/A,,Clear,270,2013-01-18 10:53:00
4:53 AM,24.1,16.0,71,30.17,10.0,WNW,12.7,-,N/A,,Clear,290,2013-01-18 11:53:00
5:53 AM,27.0,17.1,66,30.17,10.0,West,17.3,-,N/A,,Clear,280,2013-01-18 12:53:00
6:53 AM,27.0,16.0,63,30.19,10.0,West,12.7,-,N/A,,Clear,270,2013-01-18 13:53:00
7:53 AM,28.0,16.0,61,30.19,10.0,West,11.5,-,N/A,,Clear,270,2013-01-18 14:53:00
8:53 AM,39.9,19.0,43,30.17,10.0,West,8.1,-,N/A,,Clear,280,2013-01-18 15:53:00
9:53 AM,57.9,10.0,15,30.12,10.0,NNW,13.8,-,N/A,,Clear,330,2013-01-18 16:53:00
10:53 AM,59.0,8.1,13,30.10,10.0,NW,17.3,-,N/A,,Clear,310,2013-01-18 17:53:00
11:53 AM,61.0,5.0,11,30.06,10.0,NW,20.7,31.1,N/A,,Clear,310,2013-01-18 18:53:00
12:53 PM,62.1,3.9,10,30.03,10.0,NW,23.0,31.1,N/A,,Clear,320,2013-01-18 19:53:00
1:53 PM,62.1,3.9,10,30.01,10.0,NNW,18.4,25.3,N/A,,Clear,330,2013-01-18 20:53:00
2:53 PM,61.0,6.1,11,30.01,10.0,NNW,19.6,25.3,N/A,,Clear,330,2013-01-18 21:53:00
3:53 PM,60.1,5.0,11,30.03,10.0,NNW,13.8,-,N/A,,Clear,330,2013-01-18 22:53:00
4:53 PM,46.0,6.1,20,30.08,10.0,NW,6.9,-,N/A,,Clear,310,2013-01-18 23:53:00
5:53 PM,39.9,5.0,23,30.10,10.0,SW,9.2,-,N/A,,Clear,230,2013-01-19 00:53:00
6:53 PM,36.0,6.1,29,30.11,10.0,WSW,11.5,-,N/A,,Clear,240,2013-01-19 01:53:00
7:53 PM,30.9,6.1,35,30.12,10.0,WSW,10.4,-,N/A,,Clear,250,2013-01-19 02:53:00
8:53 PM,30.0,7.0,38,30.07,10.0,WSW,11.5,-,N/A,,Clear,240,2013-01-19 03:53:00
9:53 PM,28.9,7.0,40,30.01,10.0,WSW,9.2,-,N/A,,Clear,240,2013-01-19 04:53:00
10:53 PM,26.1,7.0,44,30.01,10.0,WSW,9.2,-,N/A,,Clear,250,2013-01-19 05:53:00
11:53 PM,33.1,9.0,37,29.99,10.0,West,12.7,-,N/A,,Clear,260,2013-01-19 06:53:00